This demonstration page uses our WeatherBlox Daily Observations layout. Learn more.

Left ArrowRight Arrow

38.88101, -77.10428

Hourly Observations for June 2, 2021

Temp ( °F °C ) Dew Point ( °F °C ) Humidity (%) Winds ( mph kmh ) Pressure ( in mb ) Visibility ( mi km ) Precip ( " mm )
12:52 am 00:52 Cloudy 67 19.4 58 14.4 73 73 S 8 13 30.24 1024 10 16 N/A
1:52 am 01:52 Cloudy 66 18.9 57 13.9 73 73 SSE 8 13 30.21 1023 10 16 N/A
2:52 am 02:52 Cloudy 66 18.9 56 13.3 70 70 SW 3 6 30.22 1023 10 16 N/A
3:52 am 03:52 Cloudy 66 18.9 57 13.9 73 73 S 7 11 30.22 1023 10 16 N/A
4:52 am 04:52 Cloudy 65 18.3 56 13.3 73 73 SE 5 7 30.20 1023 10 16 N/A
5:52 am 05:52 Cloudy 65 18.3 56 13.3 73 73 S 7 11 30.21 1023 10 16 N/A
6:52 am 06:52 Cloudy 65 18.3 56 13.3 73 73 S 10 17 30.22 1023 10 16 N/A
7:52 am 07:52 Cloudy 66 18.9 57 13.9 73 73 S 7 11 30.22 1023 10 16 N/A
8:52 am 08:52 Cloudy 67 19.4 58 14.4 73 73 S 7 11 30.22 1023 10 16 N/A
9:52 am 09:52 Cloudy 70 21.1 60 15.6 71 71 S 9 15 30.22 1023 10 16 N/A
10:52 am 10:52 Cloudy 73 22.8 61 16.1 66 66 S 8 13 30.21 1023 10 16 N/A
11:52 am 11:52 Cloudy 76 24.4 62 16.7 62 62 S 8 13 30.20 1023 10 16 N/A
12:52 pm 12:52 Cloudy 78 25.6 61 16.1 56 56 S 8 13 30.19 1022 10 16 N/A
1:52 pm 13:52 Mostly Cloudy 81 27.2 59 15 47 47 S 14 22 30.17 1022 10 16 N/A
2:52 pm 14:52 Mostly Cloudy 80 26.7 59 15 49 49 S 12 19 30.15 1021 10 16 N/A
3:52 pm 15:52 Mostly Cloudy 81 27.2 59 15 47 47 S 13 20 30.14 1021 10 16 N/A
4:52 pm 16:52 Mostly Cloudy 81 27.2 60 15.6 49 49 S 9 15 30.11 1020 10 16 N/A
5:52 pm 17:52 Mostly Cloudy 79 26.1 61 16.1 54 54 SSE 13 20 30.11 1020 10 16 N/A
6:52 pm 18:52 Mostly Cloudy 75 23.9 59 15 58 58 SE 14 22 30.11 1020 10 16 N/A
7:52 pm 19:52 Mostly Cloudy 73 22.8 57 13.9 57 57 SSE 14 22 30.12 1020 10 16 N/A
8:52 pm 20:52 Cloudy 72 22.2 57 13.9 59 59 SSE 12 19 30.13 1020 10 16 N/A
9:52 pm 21:52 Cloudy 71 21.7 58 14.4 63 63 SSE 10 17 30.13 1020 10 16 N/A
10:52 pm 22:52 Cloudy 70 21.1 58 14.4 66 66 SSE 9 15 30.13 1020 10 16 N/A
11:52 pm 23:52 Cloudy 69 20.6 60 15.6 73 73 S 8 13 30.12 1020 10 16 N/A

Powered by AerisWeather